This is the latest recevied weather packets stored in our database for station/object W5LND-10. If no packets are shown the sender has not sent any weather packets the latest 10 day(s).
| Time | Temp. | Humidity | Pressure | Rain* | Wind** | Luminosity | Snow |
|---|---|---|---|---|---|---|---|
| 1777214196 | 24.44° C | 61% | 1002.3 hPa | 0 mm | - | 524 W/m² | - |
| 1777213896 | 23.89° C | 64% | 1002.4 hPa | 0 mm | - | 698 W/m² | - |
| 1777213596 | 23.89° C | 66% | 1002.4 hPa | 0 mm | - | 601 W/m² | - |
| 1777213296 | 23.89° C | 68% | 1002.3 hPa | 0 mm | - | 563 W/m² | - |
| 1777212996 | 23.33° C | 69% | 1002.4 hPa | 0 mm | - | 501 W/m² | - |
| 1777212696 | 22.78° C | 70% | 1002.4 hPa | 0 mm | - | 570 W/m² | - |
| 1777212396 | 22.78° C | 72% | 1002.4 hPa | 0 mm | - | 403 W/m² | - |
| 1777212096 | 22.78° C | 75% | 1002.3 hPa | 0 mm | - | 301 W/m² | - |
| 1777211796 | 22.78° C | 76% | 1002.3 hPa | 0 mm | - | 172 W/m² | - |
| 1777211496 | 22.78° C | 77% | 1002.2 hPa | 0 mm | - | 410 W/m² | - |
| 1777211196 | 22.78° C | 78% | 1002 hPa | 0 mm | - | 399 W/m² | - |
| 1777210896 | 22.22° C | 78% | 1002 hPa | 0 mm | - | 334 W/m² | - |
| 1777210596 | 22.22° C | 79% | 1001.9 hPa | 0 mm | - | 362 W/m² | - |
| 1777210296 | 22.22° C | 79% | 1001.9 hPa | 0 mm | - | 352 W/m² | - |
| 1777209996 | 21.67° C | 80% | 1001.9 hPa | 0 mm | - | 255 W/m² | - |
| 1777209696 | 21.67° C | 80% | 1001.8 hPa | 0 mm | - | 200 W/m² | - |
| 1777209396 | 21.67° C | 80% | 1001.7 hPa | 0 mm | - | 199 W/m² | - |
| 1777209096 | 21.67° C | 80% | 1001.7 hPa | 0 mm | - | 213 W/m² | - |
| 1777208796 | 21.11° C | 80% | 1001.6 hPa | 0 mm | - | 207 W/m² | - |
| 1777208496 | 21.11° C | 80% | 1001.5 hPa | 0 mm | - | 186 W/m² | - |
| 1777208196 | 21.11° C | 80% | 1001.4 hPa | 0 mm | - | 62 W/m² | - |
| 1777207896 | 21.11° C | 79% | 1001.4 hPa | 0 mm | - | 39 W/m² | - |
| 1777207596 | 21.11° C | 79% | 1001.3 hPa | 0 mm | - | 28 W/m² | - |
| 1777207296 | 21.11° C | 79% | 1001.1 hPa | 0 mm | - | 25 W/m² | - |
| 1777206996 | 21.11° C | 79% | 1001.1 hPa | 0 mm | - | 26 W/m² | - |
* Rain latest hour (hover to see other rain measurements)
** Current wind speed in m/s (hover to see current wind gust speed)